Regional Weather Roundup
Issued by NWS

Home | Current Version | Previous Version | Graphics & Text | Print | Product List | Glossary On
Versions: 1 2 3 4 5 6 7 8 9 10 11 12 13 14 15 16 17 18 19 20 21 22 23 24 25 26 27 28 29 30 31 32 33 34 35 36 37 38 39 40 41 42 43 44 45 46 47 48 49 50
000
ASUS43 KTOP 250308
RWRKS

WEATHER ROUNDUP FOR KANSAS
NATIONAL WEATHER SERVICE GOODLAND KS
900 PM CST FRI FEB 24 2017

NOTE:  "FAIR" INDICATES FEW OR NO CLOUDS BELOW 12,000 FEET WITH NO
SIGNIFICANT WEATHER AND/OR OBSTRUCTIONS TO VISIBILITY.

KSZ001>006-013>018-027>032-041>047-250400-
NORTHWEST KANSAS

CITY           SKY/WX    TMP DP  RH WIND       PRES   REMARKS
GOODLAND       CLOUDY    16  13  88 NW5       30.08R
HAYS           CLEAR     24  15  68 N12       30.15R WCI  13
HILL CITY      CLOUDY    23  15  71 N10       30.15R WCI  12
RUSSELL        MOCLDY    24  15  68 N13       30.14R WCI  12
$$

KSZ061>065-074>080-084>089-250400-
SOUTHWEST KANSAS

CITY           SKY/WX    TMP DP  RH WIND       PRES   REMARKS
DODGE CITY     CLEAR     21  11  65 N8        30.12R
ELKHART          N/A     25   6  44 NE8         N/A
GARDEN CITY    PTCLDY    25  10  53 N12       30.12R WCI  14
GREAT BEND     CLEAR     24  16  71 N15       30.14R WCI  11
LIBERAL        CLEAR     21   9  58 N7        30.11R
PRATT          CLEAR     21  13  72 N9        30.13R
$$

KSZ066>073-081>083-090>101-250400-
SOUTHEAST KANSAS

CITY           SKY/WX    TMP DP  RH WIND       PRES   REMARKS
CHANUTE        CLOUDY    31  19  61 NW22G29   30.07R WCI  18
COFFEYVILLE    CLOUDY    34  21  59 NW16      30.09R WCI  24
HUTCHINSON     CLEAR     25  15  66 N12G20    30.13R WCI  14
MEDICINE LODGE   N/A     26  17  68 N10       30.14R WCI  16
NEWTON         PTCLDY    25  17  72 N18G25    30.12R WCI  11
PARSONS        CLOUDY    33  21  61 NW22G28   30.09R WCI  21
WICHITA INTL   PTCLDY    28  17  63 N17       30.13R WCI  16
WICHITA JABRA  CLEAR     26  18  71 N17       30.12R WCI  13
WICHITA MCCONL CLEAR     28  17  63 N13       30.12R WCI  17
WINFIELD       CLEAR     30  21  69 N17       30.13R WCI  18
$$

KSZ007>012-019>026-033>040-048>060-102>105-250400-
NORTHEAST KANSAS

CITY           SKY/WX    TMP DP  RH WIND       PRES   REMARKS
CONCORDIA      CLOUDY    24  18  77 NW13      30.12R WCI  12
EMPORIA        CLOUDY    27  18  69 NW22G35   30.09R WCI  13
LAWRENCE       CLOUDY    25  20  81 NW14      30.06R WCI  13
MANHATTAN      PTCLDY    27  17  66 NW5       30.11R
MARYSVILLE     PTCLDY    27  19  74 NW12      30.07R WCI  16
OLATHE IND     CLOUDY    26  20  77 NW21G28   30.04R WCI  12
OLATHE EXE     CLOUDY    26  20  77 NW13G26   30.01R WCI  15
SALINA         MOCLDY    28  16  60 NW17      30.15R WCI  16
TOPEKA BILLARD PTCLDY    26  21  81 NW14      30.08R WCI  14
TOPEKA FORBES  MOCLDY    27  19  72 NW16      30.07R WCI  15
$$




USA.gov is the U.S. government's official web portal to all federal, state and local government web resources and services.